This is the latest recevied weather packets stored in our database for station/object K3RUP-1. If no packets are shown the sender has not sent any weather packets the latest 10 day(s).
| Time | Temp. | Humidity | Pressure | Rain* | Wind** | Luminosity | Snow |
|---|---|---|---|---|---|---|---|
| 1777207172 | 7.78° C | 95% | 1017.7 hPa | 0 mm | - | 31 W/m² | - |
| 1777206868 | 7.78° C | 95% | 1017.7 hPa | 0 mm | - | 34 W/m² | - |
| 1777206563 | 7.78° C | 95% | 1017.7 hPa | 0 mm | - | 31 W/m² | - |
| 1777206259 | 7.78° C | 96% | 1017.6 hPa | 0 mm | - | 27 W/m² | - |
| 1777205954 | 7.78° C | 96% | 1017.5 hPa | 0 mm | - | 23 W/m² | - |
| 1777205651 | 7.78° C | 96% | 1017.4 hPa | 0 mm | - | 25 W/m² | - |
| 1777205348 | 7.78° C | 96% | 1017.3 hPa | 0 mm | - | 22 W/m² | - |
| 1777205043 | 7.78° C | 96% | 1017.2 hPa | 0 mm | - | 21 W/m² | - |
| 1777204739 | 7.78° C | 96% | 1017.2 hPa | 0 mm | - | 25 W/m² | - |
| 1777204434 | 7.78° C | 96% | 1017.1 hPa | 0 mm | - | 20 W/m² | - |
| 1777204131 | 7.78° C | 96% | 1017 hPa | 0 mm | - | 16 W/m² | - |
| 1777203825 | 7.78° C | 96% | 1017 hPa | 0 mm | - | 17 W/m² | - |
| 1777203520 | 7.78° C | 96% | 1016.9 hPa | 0 mm | - | 16 W/m² | - |
| 1777203216 | 7.78° C | 96% | 1017 hPa | 0 mm | - | 14 W/m² | - |
| 1777202914 | 7.78° C | 96% | 1017.1 hPa | 0 mm | - | 14 W/m² | - |
| 1777202613 | 7.78° C | 96% | 1016.7 hPa | 0 mm | - | 10 W/m² | - |
| 1777202313 | 7.78° C | 96% | 1016.8 hPa | 0 mm | - | 10 W/m² | - |
| 1777202008 | 7.78° C | 96% | 1016.7 hPa | 0 mm | - | 8 W/m² | - |
| 1777201705 | 7.78° C | 96% | 1016.6 hPa | 0 mm | - | 6 W/m² | - |
| 1777201401 | 7.78° C | 96% | 1016.5 hPa | 0 mm | - | 4 W/m² | - |
| 1777201097 | 7.78° C | 96% | 1016.5 hPa | 0 mm | - | 3 W/m² | - |
| 1777200793 | 7.78° C | 96% | 1016.4 hPa | 0 mm | - | 3 W/m² | - |
| 1777200489 | 7.78° C | 96% | 1016.3 hPa | 0 mm | - | 2 W/m² | - |
| 1777200184 | 7.78° C | 96% | 1016 hPa | 0 mm | - | 3 W/m² | - |
| 1777199882 | 7.78° C | 95% | 1016.4 hPa | 0 mm | - | 1 W/m² | - |
* Rain latest hour (hover to see other rain measurements)
** Current wind speed in m/s (hover to see current wind gust speed)